This is the latest recevied weather packets stored in our database for station/object OH2EGI-2. If no packets are shown the sender has not sent any weather packets the latest 10 day(s).
| Time | Temp. | Humidity | Pressure | Rain* | Wind** | Luminosity | Snow |
|---|---|---|---|---|---|---|---|
| 1777876601 | 17.22° C | 43% | 996.2 hPa | 0 mm | - | - | - |
| 1777876301 | 17.22° C | 42% | 996.2 hPa | 0 mm | - | - | - |
| 1777876001 | 17.78° C | 42% | 996.2 hPa | 0 mm | - | - | - |
| 1777875701 | 17.78° C | 42% | 996.3 hPa | 0 mm | - | - | - |
| 1777875401 | 18.33° C | 42% | 996.4 hPa | 0 mm | - | - | - |
| 1777875101 | 18.33° C | 42% | 996.4 hPa | 0 mm | - | - | - |
| 1777874801 | 18.89° C | 42% | 996.6 hPa | 0 mm | - | - | - |
| 1777874501 | 19.44° C | 43% | 996.5 hPa | 0 mm | - | - | - |
| 1777874201 | 19.44° C | 45% | 996.7 hPa | 0 mm | - | - | - |
| 1777873901 | 18.33° C | 47% | 996.7 hPa | 0 mm | - | - | - |
| 1777873601 | 17.22° C | 48% | 996.8 hPa | 0 mm | - | - | - |
| 1777873301 | 16.67° C | 49% | 996.8 hPa | 0 mm | - | - | - |
| 1777873007 | 15° C | 50% | 996.8 hPa | 0 mm | - | - | - |
| 1777872701 | 15° C | 51% | 997 hPa | 0 mm | - | - | - |
| 1777872401 | 14.44° C | 53% | 997 hPa | 0 mm | - | - | - |
| 1777872101 | 13.89° C | 55% | 996.9 hPa | 0 mm | - | - | - |
| 1777871801 | 12.78° C | 56% | 997 hPa | 0 mm | - | - | - |
| 1777871501 | 12.22° C | 57% | 997 hPa | 0 mm | - | - | - |
| 1777871201 | 11.11° C | 58% | 997 hPa | 0 mm | - | - | - |
| 1777870901 | 10.56° C | 60% | 997 hPa | 0 mm | - | - | - |
| 1777870601 | 10.56° C | 60% | 996.9 hPa | 0 mm | - | - | - |
| 1777870301 | 10° C | 61% | 997.1 hPa | 0 mm | - | - | - |
| 1777870001 | 9.44° C | 61% | 997.1 hPa | 0 mm | - | - | - |
| 1777869701 | 9.44° C | 61% | 997.3 hPa | 0 mm | - | - | - |
| 1777869401 | 8.89° C | 62% | 997.2 hPa | 0 mm | - | - | - |
* Rain latest hour (hover to see other rain measurements)
** Current wind speed in m/s (hover to see current wind gust speed)